map of MAM home
Great Circle Mapper logo
MAM - Airport
Location
City:  Matamoros, Tamaulipas, México
Name:General Servando Canales International Airport
ICAO / IATA:MMMA / MAM

Details
Type:Airport (Aerodrome, Airfield)
Use:Public/Civil, International (customs port of entry)
Latitude:25°46'12"N (25.769894)
Longitude:97°31'31"W (-97.525310)
Datum:WGS 1984
Elevation:25 ft (8 m)
Variation:4.08°E (WMM2015 magnetic declination)
-0.11° annual change
Runways:1
Longest:7546 × 151 ft (2300 × 46 m), paved

Time
Time Zone:UTC-6 (DST-5)
Local Time:

Weather
METAR:MMMA 260044Z 08006KT 7SM BKN020TCU 28/26 A2971 RMK 8/200 HZY VRB COND
TAF:MMMA 251723Z 2518/2618 16015KT P6SM SCT030 BKN100
TEMPO 2520/2524 BKN030
FM260400 00000KT 5SM HZ BKN020
FM260900 00000KT 2SM BR BKN004 OVC010
FM261600 12012KT 5SM HZ BKN015

Related Locations
Nearby:
Farthest:RRG: 11159 mi / 17959 km
Plaine Corail, Rodrigues Island, MU

Find:

   beyond  
but within

Other Information
Maps:
NOTAMs:
Links:
Sources:

  
flag of México   

Sectional Chart

Flight Planning
at skyvector.com

Satellite Image

Google Maps Satellite View

 

Copyright © 2004-2015 Karl L. Swartz. All rights reserved.
The Great Circle Mapper name and logo are trademarks of the Great Circle Mapper.
All other trademarks mentioned herein belong to their respective owners.
Please see credits for attibutions and further copyright information.

  Follow gcmap on Facebook Follow gcmap on Twitter Follow gcmap on Google+

hCard Microformat

Geo Microformat